Location: Pedimozza
(42.0500°N, 9.3500°E)
Time: 07:54:00
(UTC+00:00)

Cosmos 2112 Rocket - Pass Details

Date: 19 August 2019
Orbit: 757 x 787 km, 74.0° (Epoch: 20 September)

Event Time Altitude Azimuth Distance (km) Brightness Sun altitude
Rises 20:54:47 0° 335° (NNW) 3,250 8.5 -25.2°
Reaches altitude 10° 20:57:13 10° 331° (NNW) 2,314 7.5 -25.5°
Maximum altitude 21:02:18 53° 256° (WSW) 938 4.5 -26.1°
Enters shadow 21:03:03 48° 225° (SW) 988 4.4 -26.2°
